Location: Rounton
(54.4000°N, 1.3500°W)
Time: 21:27:56
(UTC+01:00)

YAOGAN 20A - Pass Details

Date: 02 July 2022
Orbit: 891 x 1288 km, 63.4° (Epoch: 18 August)

Event Time Altitude Azimuth Distance (km) Brightness Sun altitude
Rises 23:57:07 0° 305° (NW) 3,756 8.9 -11.0°
Reaches altitude 10° 23:59:40 10° 309° (NW) 2,857 8.3 -11.1°
Maximum altitude 00:06:26 62° 30° (NNE) 1,252 5.7 -11.4°
Drops below altitude 10° 00:13:52 10° 111° (ESE) 3,136 7.2 -11.6°
Sets 00:16:47 0° 115° (ESE) 4,146 7.8 -11.7°
